TimeCDT,TemperatureF,Dew PointF,Humidity,Sea Level PressureIn,VisibilityMPH,Wind Direction,Wind SpeedMPH,Gust SpeedMPH,PrecipitationIn,Events,Conditions,WindDirDegrees,DateUTC
12:09 AM,42.8,41.0,93,30.08,10.0,Calm,Calm,-,N/A,,Clear,0,2013-06-19 05:09:00
12:28 AM,41.0,41.0,100,30.08,10.0,Calm,Calm,-,N/A,,Clear,0,2013-06-19 05:28:00
12:49 AM,39.2,37.4,93,30.08,10.0,Calm,Calm,-,N/A,,Clear,0,2013-06-19 05:49:00
1:09 AM,39.2,37.4,93,30.08,10.0,Calm,Calm,-,N/A,,Clear,0,2013-06-19 06:09:00
1:28 AM,39.2,37.4,93,30.08,10.0,Calm,Calm,-,N/A,,Clear,0,2013-06-19 06:28:00
1:49 AM,39.2,37.4,93,30.08,10.0,Calm,Calm,-,N/A,,Clear,0,2013-06-19 06:49:00
2:09 AM,39.2,37.4,93,30.07,10.0,Calm,Calm,-,N/A,,Clear,0,2013-06-19 07:09:00
2:28 AM,39.2,37.4,93,30.07,10.0,Calm,Calm,-,N/A,,Clear,0,2013-06-19 07:28:00
2:49 AM,37.4,35.6,93,30.06,10.0,Calm,Calm,-,N/A,,Clear,0,2013-06-19 07:49:00
3:09 AM,37.4,35.6,93,30.06,10.0,Calm,Calm,-,N/A,,Clear,0,2013-06-19 08:09:00
3:28 AM,35.6,35.6,100,30.05,10.0,Calm,Calm,-,N/A,,Clear,0,2013-06-19 08:28:00
3:49 AM,35.6,35.6,100,30.05,10.0,Calm,Calm,-,N/A,,Clear,0,2013-06-19 08:49:00
4:09 AM,35.6,35.6,100,30.06,10.0,Calm,Calm,-,N/A,,Clear,0,2013-06-19 09:09:00
4:28 AM,35.6,35.6,100,30.05,10.0,Calm,Calm,-,N/A,,Clear,0,2013-06-19 09:28:00
4:49 AM,35.6,35.6,100,30.06,10.0,Calm,Calm,-,N/A,,Clear,0,2013-06-19 09:49:00
5:09 AM,35.6,35.6,100,30.06,10.0,Calm,Calm,-,N/A,,Clear,0,2013-06-19 10:09:00
5:29 AM,35.6,35.6,100,30.07,10.0,Calm,Calm,-,N/A,,Clear,0,2013-06-19 10:29:00
5:49 AM,37.4,37.4,100,30.07,10.0,Calm,Calm,-,N/A,,Mostly Cloudy,0,2013-06-19 10:49:00
6:09 AM,41.0,39.2,93,30.07,10.0,Calm,Calm,-,N/A,,Mostly Cloudy,0,2013-06-19 11:09:00
6:29 AM,42.8,42.8,100,30.07,10.0,Calm,Calm,-,N/A,,Overcast,0,2013-06-19 11:29:00
6:49 AM,46.4,44.6,93,30.06,10.0,Calm,Calm,-,N/A,,Overcast,0,2013-06-19 11:49:00
7:09 AM,51.8,44.6,76,30.07,10.0,Calm,Calm,-,N/A,,Overcast,0,2013-06-19 12:09:00
7:29 AM,51.8,44.6,76,30.08,10.0,Calm,Calm,-,N/A,,Overcast,0,2013-06-19 12:29:00
7:48 AM,51.8,42.8,71,30.08,10.0,Calm,Calm,-,N/A,,Overcast,0,2013-06-19 12:48:00
8:09 AM,51.8,44.6,76,30.07,10.0,Calm,Calm,-,N/A,,Overcast,0,2013-06-19 13:09:00
8:29 AM,53.6,44.6,72,30.08,10.0,Calm,Calm,-,N/A,,Overcast,0,2013-06-19 13:29:00
8:49 AM,57.2,46.4,67,30.08,10.0,Calm,Calm,-,N/A,,Mostly Cloudy,0,2013-06-19 13:49:00
9:09 AM,60.8,48.2,63,30.07,10.0,Calm,Calm,-,N/A,,Mostly Cloudy,0,2013-06-19 14:09:00
9:29 AM,64.4,50.0,59,30.06,10.0,SSW,5.8,-,N/A,,Mostly Cloudy,210,2013-06-19 14:29:00
9:49 AM,66.2,50.0,56,30.06,10.0,SW,8.1,-,N/A,,Scattered Clouds,230,2013-06-19 14:49:00
10:09 AM,68.0,51.8,56,30.05,10.0,SSW,5.8,-,N/A,,Scattered Clouds,210,2013-06-19 15:09:00
10:29 AM,69.8,53.6,56,30.05,10.0,SSW,5.8,-,N/A,,Mostly Cloudy,210,2013-06-19 15:29:00
10:49 AM,71.6,55.4,57,30.05,10.0,SSW,9.2,-,N/A,,Mostly Cloudy,200,2013-06-19 15:49:00
11:09 AM,71.6,53.6,53,30.04,10.0,WSW,3.5,-,N/A,,Mostly Cloudy,250,2013-06-19 16:09:00
11:29 AM,71.6,53.6,53,30.04,10.0,SSW,8.1,-,N/A,,Mostly Cloudy,210,2013-06-19 16:29:00
11:49 AM,71.6,53.6,53,30.04,10.0,SW,10.4,-,N/A,,Overcast,230,2013-06-19 16:49:00
12:09 PM,71.6,55.4,57,30.04,10.0,SW,4.6,-,N/A,,Overcast,230,2013-06-19 17:09:00
12:29 PM,71.6,55.4,57,30.03,10.0,WSW,4.6,-,N/A,,Overcast,240,2013-06-19 17:29:00
12:49 PM,71.6,55.4,57,30.02,10.0,SW,5.8,-,N/A,,Overcast,230,2013-06-19 17:49:00
1:09 PM,73.4,53.6,50,30.02,10.0,SSW,9.2,-,N/A,,Overcast,210,2013-06-19 18:09:00
1:29 PM,73.4,53.6,50,30.01,10.0,South,9.2,-,N/A,,Overcast,190,2013-06-19 18:29:00
1:48 PM,77.0,55.4,47,30.01,10.0,SSW,8.1,16.1,N/A,,Mostly Cloudy,210,2013-06-19 18:48:00
2:09 PM,77.0,53.6,44,30.00,10.0,SW,6.9,-,N/A,,Scattered Clouds,220,2013-06-19 19:09:00
2:29 PM,77.0,50.0,39,30.00,10.0,SW,10.4,-,N/A,,Clear,220,2013-06-19 19:29:00
2:48 PM,77.0,50.0,39,29.99,10.0,SSE,5.8,-,N/A,,Clear,150,2013-06-19 19:48:00
3:09 PM,77.0,50.0,39,29.99,10.0,SW,5.8,-,N/A,,Clear,230,2013-06-19 20:09:00
3:29 PM,77.0,53.6,44,29.98,10.0,SSW,9.2,-,N/A,,Scattered Clouds,200,2013-06-19 20:29:00
3:49 PM,77.0,51.8,41,29.98,10.0,SW,5.8,-,N/A,,Mostly Cloudy,220,2013-06-19 20:49:00
4:09 PM,77.0,51.8,41,29.98,10.0,SSW,6.9,10.4,N/A,,Overcast,210,2013-06-19 21:09:00
4:29 PM,78.8,51.8,39,29.98,10.0,SSW,9.2,17.3,N/A,,Overcast,210,2013-06-19 21:29:00
4:49 PM,80.6,51.8,37,29.97,10.0,SW,6.9,16.1,N/A,,Mostly Cloudy,230,2013-06-19 21:49:00
5:09 PM,78.8,50.0,36,29.97,10.0,SSW,12.7,18.4,N/A,,Scattered Clouds,200,2013-06-19 22:09:00
5:29 PM,77.0,50.0,39,29.96,10.0,SSW,10.4,16.1,N/A,,Mostly Cloudy,200,2013-06-19 22:29:00
5:49 PM,77.0,50.0,39,29.96,10.0,SSW,12.7,18.4,N/A,,Mostly Cloudy,210,2013-06-19 22:49:00
6:09 PM,78.8,51.8,39,29.96,10.0,SSW,11.5,-,N/A,,Mostly Cloudy,210,2013-06-19 23:09:00
6:29 PM,78.8,51.8,39,29.96,10.0,SSW,10.4,-,N/A,,Scattered Clouds,200,2013-06-19 23:29:00
6:49 PM,77.0,50.0,39,29.96,10.0,SW,8.1,18.4,N/A,,Clear,220,2013-06-19 23:49:00
7:09 PM,77.0,50.0,39,29.96,10.0,SSW,9.2,-,N/A,,Clear,210,2013-06-20 00:09:00
7:29 PM,77.0,51.8,41,29.96,10.0,SSW,9.2,-,N/A,,Clear,210,2013-06-20 00:29:00
7:49 PM,77.0,53.6,44,29.96,10.0,SSW,10.4,-,N/A,,Clear,210,2013-06-20 00:49:00
8:09 PM,73.4,51.8,47,29.96,10.0,SSW,6.9,-,N/A,,Clear,210,2013-06-20 01:09:00
8:29 PM,71.6,51.8,50,29.97,10.0,SW,5.8,-,N/A,,Clear,220,2013-06-20 01:29:00
8:49 PM,71.6,53.6,53,29.97,10.0,SW,4.6,-,N/A,,Clear,230,2013-06-20 01:49:00
9:09 PM,69.8,53.6,56,29.97,10.0,SW,4.6,-,N/A,,Scattered Clouds,220,2013-06-20 02:09:00
9:29 PM,64.4,53.6,68,29.98,10.0,SSW,3.5,-,N/A,,Scattered Clouds,200,2013-06-20 02:29:00
9:49 PM,62.6,53.6,72,29.99,10.0,SSW,3.5,-,N/A,,Scattered Clouds,210,2013-06-20 02:49:00
10:09 PM,62.6,53.6,72,29.99,10.0,SSW,4.6,-,N/A,,Scattered Clouds,210,2013-06-20 03:09:00
10:29 PM,64.4,53.6,68,30.00,10.0,SSW,5.8,-,N/A,,Scattered Clouds,210,2013-06-20 03:29:00
10:49 PM,66.2,53.6,64,30.00,10.0,SSW,5.8,-,N/A,,Scattered Clouds,210,2013-06-20 03:49:00
11:08 PM,64.4,53.6,68,30.00,10.0,SSW,4.6,-,N/A,,Clear,210,2013-06-20 04:08:00
11:29 PM,64.4,53.6,68,30.00,10.0,SW,3.5,-,N/A,,Clear,220,2013-06-20 04:29:00
11:49 PM,59.0,53.6,82,30.00,10.0,Calm,Calm,-,N/A,,Clear,0,2013-06-20 04:49:00